Voltar ao catálogo

REPLICATOR-2

AtivoCiênciaSSO
NORAD 69927·PAYLOAD·🇯🇵 Japan

Lançado Jul 7, 2026 de Vandenberg Space Force Base

Loading…

Próximas Passagens (próximas 24 horas)

TLE

AtualizadoSource: Space-Track

Época: Sep 14, 2026, 13:01 UTC

1 69927U 26156BL  26257.54237068  .00000987  00000-0  10208-3 0  9998
2 69927  97.7457 156.8900 0006967 295.4033  64.6465 14.92297272 10150

Acompanhe REPLICATOR-2 em tempo real com AllMySat

Download on the App Store